"Period start","avg(HW err(1)/warn(2) (#))","avg(Visibility (m))","avg(Weather code (#))","avg(Precip intensity (mm/h))","min(HW err(1)/warn(2) (#))","max(HW err(1)/warn(2) (#))","std(HW err(1)/warn(2) (#))","med(HW err(1)/warn(2) (#))","min(Visibility (m))","max(Visibility (m))","std(Visibility (m))","med(Visibility (m))","min(Weather code (#))","max(Weather code (#))","std(Weather code (#))","med(Weather code (#))","min(Precip intensity (mm/h))","max(Precip intensity (mm/h))","std(Precip intensity (mm/h))","med(Precip intensity (mm/h))"
2014-06-27 00:00:00,2,8110,61,5.22,2,2,0,2,6413,10529,1114,8146,61,61,0,61,1.85,9.85,2.80,4.55
2014-06-27 00:10:00,2,8059,61,2.79,2,2,0,2,6764,9336,870,8076,61,61,0,61,0.65,7.45,1.69,2.35
2014-06-27 00:20:00,2,7755,61,1.95,2,2,0,2,5952,9705,1087,7672,61,61,0,61,1.00,2.75,0.56,1.85
2014-06-27 00:30:00,2,5934,61,4.49,2,2,0,2,4989,7113,796,5799,61,61,0,61,2.30,9.25,2.10,4.20
2014-06-27 00:40:00,2,7041,61,5.21,2,2,0,2,4422,10266,1477,7244,61,61,0,61,2.40,8.85,2.16,4.70
2014-06-27 00:50:00,2,6642,61,8.86,2,2,0,2,5412,9126,1086,6553,61,62,0,61,5.20,15.75,3.03,8.33
2014-06-27 01:00:00,2,8995,61,4.17,2,2,0,2,7690,11112,941,8973,61,62,0,61,1.00,11.90,2.82,3.58
2014-06-27 01:10:00,2,9929,61,5.49,2,2,0,2,7332,12391,1873,9648,61,62,0,61,1.70,11.85,2.88,5.53
2014-06-27 01:20:00,2,7568,61,8.18,2,2,0,2,5293,9984,1403,7538,61,62,0,61,1.70,18.85,5.32,6.30
2014-06-27 01:30:00,2,11204,61,3.83,2,2,0,2,6917,21024,3998,9832,61,61,0,61,0.30,8.10,2.88,2.75
2014-06-27 01:40:00,2,12498,61,5.98,2,2,0,2,6628,18258,3669,12324,61,62,0,61,1.70,10.15,2.90,5.68
2014-06-27 01:50:00,2,10341,61,7.54,2,2,0,2,5655,16125,3099,10526,61,62,0,61,0.75,13.40,3.94,7.95
2014-06-27 02:00:00,2,11814,62,10.12,2,2,0,2,8181,17253,3131,10858,61,62,0,62,1.70,16.70,4.87,11.07
2014-06-27 02:10:00,2,8210,62,12.36,2,2,0,2,5389,9862,1203,8233,61,62,0,62,6.60,17.05,3.58,14.12
2014-06-27 02:20:00,2,9498,61,7.79,2,2,0,2,8338,11304,979,9266,61,62,0,61,3.15,15.30,4.14,6.60
2014-06-27 02:30:00,2,11010,61,5.44,2,2,0,2,7624,13821,1946,11218,61,62,0,61,2.55,16.50,3.86,4.85
2014-06-27 02:40:00,2,12282,61,3.12,2,2,0,2,9707,15402,1664,12614,61,61,0,61,0.80,8.00,2.17,2.33
2014-06-27 02:50:00,2,11738,61,4.42,2,2,0,2,10023,16098,1905,10910,61,61,0,61,1.90,8.50,2.06,3.70
2014-06-27 03:00:00,2,13737,61,4.21,2,2,0,2,10444,18195,2655,12414,61,61,0,61,1.20,9.10,2.19,3.98
2014-06-27 03:10:00,2,8798,61,7.34,2,2,0,2,6116,10269,1235,8991,61,62,0,61,2.05,14.40,3.82,7.10
2014-06-27 03:20:00,2,6828,61,8.87,2,2,0,2,4022,9373,1397,6858,61,62,0,61,1.90,23.25,6.47,8.18
2014-06-27 03:30:00,2,9366,62,9.39,2,2,0,2,5933,12283,1917,8786,61,62,0,62,3.65,13.40,2.95,10.45
2014-06-27 03:40:00,2,6177,61,8.27,2,2,0,2,4337,8278,1275,6316,61,62,0,61,3.05,12.70,2.62,9.00
2014-06-27 03:50:00,2,8795,61,6.62,2,2,0,2,5410,12123,2316,9364,61,62,0,61,3.30,10.20,2.54,6.00
2014-06-27 04:00:00,2,8136,61,4.26,2,2,0,2,5849,9546,1070,8297,61,61,0,61,1.10,8.25,2.03,3.90
2014-06-27 04:10:00,2,9218,61,5.01,2,2,0,2,7196,11254,1239,9579,61,61,0,61,1.35,9.60,2.60,4.27
2014-06-27 04:20:00,2,8264,62,11.32,2,2,0,2,3974,10216,2047,9072,61,62,0,62,9.05,13.85,1.55,11.38
2014-06-27 04:30:00,2,6705,64,9.47,2,2,0,2,4053,8701,1381,6690,61,67,3,62,5.70,14.25,3.21,8.78
2014-06-27 04:40:00,2,9975,61,6.54,2,2,0,2,7921,12558,1621,9552,61,62,0,61,1.65,10.45,2.79,6.88
2014-06-27 04:50:00,2,7496,61,7.58,2,2,0,2,4531,11889,2723,6476,61,62,0,61,1.80,13.85,3.44,7.55
2014-06-27 05:00:00,2,5019,64,12.47,2,2,0,2,2102,7237,1373,4982,61,67,3,64,5.65,24.95,6.12,9.60
2014-06-27 05:10:00,2,4575,65,7.57,2,2,0,2,1362,10208,3033,3812,61,68,3,67,3.00,12.15,3.23,8.23
2014-06-27 05:20:00,2,9132,61,7.21,2,2,0,2,5408,14419,2766,8848,61,62,0,61,0.55,20.90,6.27,5.00
2014-06-27 05:30:00,2,14338,61,4.09,2,2,0,2,6090,22603,6367,15316,61,62,0,61,0.25,18.20,5.38,1.12
2014-06-27 05:40:00,2,16428,61,1.26,2,2,0,2,11493,20936,2406,15875,61,61,0,61,0.70,2.40,0.55,1.08
2014-06-27 05:50:00,2,11524,61,2.92,2,2,0,2,9180,14257,1484,11792,61,61,0,61,1.65,7.10,1.51,2.75
2014-06-27 06:00:00,2,7798,62,11.82,2,2,0,2,3170,12454,2812,8543,61,62,0,62,2.00,27.60,7.38,10.80
2014-06-27 06:10:00,2,7966,60,2.65,2,2,0,2,4999,11508,2181,7568,52,61,3,61,1.50,4.95,1.10,2.35
2014-06-27 06:20:00,2,13895,57,0.67,2,2,0,2,6428,19389,4593,14833,52,61,4,61,0.05,2.10,0.57,0.45
2014-06-27 06:30:00,2,15815,61,3.12,2,2,0,2,12110,19924,2428,15305,61,61,0,61,0.95,6.60,2.26,1.65
2014-06-27 06:40:00,2,40918,60,0.85,2,2,0,2,23081,50000,10746,47355,51,61,3,61,0.20,2.00,0.51,0.68
2014-06-27 06:50:00,2,49639,51,0.30,2,2,0,2,46391,50000,1083,50000,51,51,0,51,0.00,0.75,0.25,0.23
2014-06-27 07:00:00,2,28573,60,1.90,2,2,0,2,14044,41656,8874,28982,51,61,3,61,0.65,3.45,0.78,1.75
2014-06-27 07:10:00,2,46127,38,0.14,2,2,0,2,25997,50000,7584,50000,0,61,25,51,0.00,0.70,0.23,0.03
2014-06-27 07:20:00,2,49158,0,0.00,2,2,0,2,45191,50000,1480,50000,0,0,0,0,0.00,0.00,0.00,0.00
2014-06-27 07:30:00,2,41211,0,0.00,2,2,0,2,19805,50000,11249,46260,0,0,0,0,0.00,0.00,0.00,0.00
2014-06-27 07:40:00,2,50000,0,0.00,2,2,0,2,50000,50000,0,50000,0,0,0,0,0.00,0.00,0.00,0.00
2014-06-27 07:50:00,2,49249,4,0.09,2,2,0,2,42488,50000,2254,50000,0,40,12,0,0.00,0.90,0.27,0.00
2014-06-27 08:00:00,2,38986,59,2.34,2,2,0,2,15982,50000,11225,42463,40,61,6,61,0.05,5.35,1.65,2.45
2014-06-27 08:10:00,2,13115,62,8.63,2,2,0,2,11194,17130,1650,12531,61,62,0,62,1.30,16.40,4.79,10.27
2014-06-27 08:20:00,2,17500,61,3.85,2,2,0,2,13705,23156,3116,16964,61,61,0,61,1.75,7.10,1.95,3.20
2014-06-27 08:30:00,2,11347,61,7.47,2,2,0,2,8522,16033,2283,10656,61,62,0,61,1.85,17.45,4.19,8.10
2014-06-27 08:40:00,2,9014,62,10.75,2,2,0,2,5461,12316,1805,8926,61,62,0,62,1.75,17.70,4.73,11.50
2014-06-27 08:50:00,2,8972,61,6.32,2,2,0,2,6884,11148,1406,8590,61,61,0,61,3.40,8.10,1.28,6.50
2014-06-27 09:00:00,2,9740,61,5.55,2,2,0,2,6103,13863,2779,9398,61,62,0,61,2.75,16.95,3.98,3.90
2014-06-27 09:10:00,2,8429,61,7.60,2,2,0,2,5068,10357,1709,9244,61,62,0,61,2.45,15.55,4.10,6.90
2014-06-27 09:20:00,2,23914,61,1.44,2,2,0,2,9056,37111,8317,24520,61,61,0,61,0.25,4.55,1.39,0.68
2014-06-27 09:30:00,2,14050,61,3.10,2,2,0,2,11291,18959,2247,14354,61,61,0,61,0.60,8.10,1.95,2.40
2014-06-27 09:40:00,2,12956,61,3.92,2,2,0,2,11075,16729,1912,12315,61,61,0,61,1.75,6.50,1.65,3.38
2014-06-27 09:50:00,2,12642,61,5.43,2,2,0,2,9147,15875,1763,12508,61,62,0,61,2.70,11.45,2.37,4.95
2014-06-27 10:00:00,2,6272,61,9.52,2,2,0,2,3921,8230,1308,6280,61,62,0,61,2.65,23.50,6.26,7.08
2014-06-27 10:10:00,2,4708,62,18.04,2,2,0,2,3509,5734,729,5116,62,62,0,62,11.85,32.25,7.16,14.72
2014-06-27 10:20:00,2,3858,66,7.57,2,2,0,2,2560,4859,613,3958,62,67,2,67,3.30,18.50,4.52,6.58
2014-06-27 10:30:00,2,4650,64,12.16,2,2,0,2,3121,6394,798,4562,61,67,3,62,4.90,19.75,4.54,13.35
2014-06-27 10:40:00,2,4836,61,8.74,2,2,0,2,3493,7675,1139,4870,61,62,0,61,4.70,17.20,3.74,8.82
2014-06-27 10:50:00,2,6212,61,8.71,2,2,0,2,4861,7507,774,6144,61,62,0,61,3.90,13.50,2.94,8.85
2014-06-27 11:00:00,2,7046,62,11.64,2,2,0,2,5065,10298,1365,6834,61,62,0,62,2.60,19.40,4.63,12.18
2014-06-27 11:10:00,2,5089,62,15.65,2,2,0,2,3679,7302,1200,4805,61,62,0,62,6.75,30.00,7.72,14.00
2014-06-27 11:20:00,2,5597,61,8.43,2,2,0,2,4643,6293,547,5785,61,62,0,61,3.75,15.90,3.74,7.83
2014-06-27 11:30:00,2,12408,61,1.65,2,2,0,2,7712,19012,2963,11797,61,61,0,61,0.60,4.25,1.21,1.12
2014-06-27 11:40:00,2,37075,55,0.12,2,2,0,2,24742,45169,5276,37090,51,61,5,51,0.05,0.20,0.06,0.10
2014-06-27 11:50:00,2,9408,58,2.98,2,2,0,2,4708,20260,4194,7732,51,61,5,61,0.30,5.95,1.72,3.00
2014-06-27 12:00:00,2,5203,62,13.09,2,2,0,2,4671,6245,457,5184,61,62,0,62,4.80,29.15,8.13,9.68
2014-06-27 12:10:00,2,4980,65,11.41,2,2,0,2,2932,7085,1315,5266,61,68,3,64,4.95,22.80,5.69,9.35
2014-06-27 12:20:00,2,16737,61,1.88,2,2,0,2,9851,24900,4634,15750,61,61,0,61,0.40,4.35,1.24,1.65
2014-06-27 12:30:00,2,13110,61,2.87,2,2,0,2,10190,21704,3337,12191,61,61,0,61,0.30,7.55,1.93,2.35
2014-06-27 12:40:00,2,44490,41,0.05,2,2,0,2,25173,50000,8119,48847,0,61,27,56,0.00,0.15,0.05,0.03
2014-06-27 12:50:00,2,49745,0,0.00,2,2,0,2,47648,50000,701,50000,0,0,0,0,0.00,0.00,0.00,0.00
2014-06-27 13:00:00,2,50000,0,0.00,2,2,0,2,50000,50000,0,50000,0,0,0,0,0.00,0.00,0.00,0.00
2014-06-27 13:10:00,2,49932,0,0.00,2,2,0,2,49324,50000,203,50000,0,0,0,0,0.00,0.00,0.00,0.00
2014-06-27 13:20:00,2,49910,0,0.00,2,2,0,2,49100,50000,270,50000,0,0,0,0,0.00,0.00,0.00,0.00
2014-06-27 13:30:00,2,49440,0,0.00,2,2,0,2,45767,50000,1275,50000,0,0,0,0,0.00,0.00,0.00,0.00
2014-06-27 13:40:00,2,33283,30,0.35,2,2,0,2,20536,50000,10063,30156,0,61,26,40,0.00,1.15,0.38,0.23
2014-06-27 13:50:00,2,49886,0,0.00,2,2,0,2,48863,50000,341,50000,0,0,0,0,0.00,0.00,0.00,0.00
2014-06-27 14:00:00,2,48066,0,0.00,2,2,0,2,40014,50000,2906,49014,0,0,0,0,0.00,0.00,0.00,0.00
2014-06-27 14:10:00,2,31783,47,0.42,2,2,0,2,12820,48461,14248,33062,40,52,5,51,0.05,1.70,0.50,0.17
2014-06-27 14:20:00,2,13713,54,1.35,2,2,0,2,8174,18323,3553,13942,51,61,4,52,0.35,3.95,1.01,1.02
2014-06-27 14:30:00,2,8727,61,2.94,2,2,0,2,6793,10547,1342,8451,61,61,0,61,1.35,4.80,1.03,2.85
2014-06-27 14:40:00,2,8240,61,2.65,2,2,0,2,5914,10430,1350,8088,61,61,0,61,0.75,5.35,1.16,2.67
2014-06-27 14:50:00,2,6958,65,2.27,2,2,0,2,4942,11117,1762,6662,61,67,3,67,1.10,3.20,0.67,2.33
2014-06-27 15:00:00,2,11807,64,0.95,2,2,0,2,4739,17005,3527,12186,61,67,3,64,0.50,1.80,0.42,0.88
2014-06-27 15:10:00,2,14174,61,1.15,2,2,0,2,11547,17114,1637,14226,61,61,0,61,0.45,2.65,0.66,1.00
2014-06-27 15:20:00,2,12726,61,2.25,2,2,0,2,8899,15878,2173,12847,61,61,0,61,0.10,8.25,2.19,1.58
2014-06-27 15:30:00,2,9110,71,0.77,2,2,0,2,6113,13218,2606,8632,67,71,1,71,0.05,1.80,0.45,0.68
2014-06-27 15:40:00,2,14676,62,1.54,2,2,0,2,12850,17427,1671,14296,61,67,2,61,0.60,2.90,0.70,1.45
2014-06-27 15:50:00,2,15600,61,1.74,2,2,0,2,9310,29267,5366,14123,61,61,0,61,0.30,3.15,1.02,1.90
2014-06-27 16:00:00,2,36892,61,0.17,2,2,0,2,26665,50000,9220,35072,61,61,0,61,0.00,0.80,0.22,0.12
2014-06-27 16:10:00,2,49721,57,0.04,2,2,0,2,48549,50000,559,50000,51,61,5,61,0.00,0.10,0.04,0.05
2014-06-27 16:20:00,2,50000,20,0.00,2,2,0,2,50000,50000,0,50000,0,41,20,20,0.00,0.00,0.00,0.00
2014-06-27 16:30:00,2,50000,0,0.00,2,2,0,2,50000,50000,0,50000,0,0,0,0,0.00,0.00,0.00,0.00
2014-06-27 16:40:00,2,50000,0,0.00,2,2,0,2,50000,50000,0,50000,0,0,0,0,0.00,0.00,0.00,0.00
2014-06-27 16:50:00,2,50000,0,0.00,2,2,0,2,50000,50000,0,50000,0,0,0,0,0.00,0.00,0.00,0.00
2014-06-27 17:00:00,2,50000,0,0.00,2,2,0,2,50000,50000,0,50000,0,0,0,0,0.00,0.00,0.00,0.00
2014-06-27 17:10:00,2,50000,0,0.00,2,2,0,2,50000,50000,0,50000,0,0,0,0,0.00,0.00,0.00,0.00
2014-06-27 17:20:00,2,50000,0,0.00,2,2,0,2,50000,50000,0,50000,0,0,0,0,0.00,0.00,0.00,0.00
2014-06-27 17:30:00,2,50000,0,0.00,2,2,0,2,50000,50000,0,50000,0,0,0,0,0.00,0.00,0.00,0.00
2014-06-27 17:40:00,2,50000,0,0.00,2,2,0,2,50000,50000,0,50000,0,0,0,0,0.00,0.00,0.00,0.00
2014-06-27 17:50:00,2,50000,0,0.00,2,2,0,2,50000,50000,0,50000,0,0,0,0,0.00,0.00,0.00,0.00
2014-06-27 18:00:00,2,50000,0,0.00,2,2,0,2,50000,50000,0,50000,0,0,0,0,0.00,0.00,0.00,0.00
2014-06-27 18:10:00,2,50000,0,0.00,2,2,0,2,50000,50000,0,50000,0,0,0,0,0.00,0.00,0.00,0.00
2014-06-27 18:20:00,2,49991,0,0.00,2,2,0,2,49909,50000,27,50000,0,0,0,0,0.00,0.00,0.00,0.00
2014-06-27 18:30:00,2,50000,0,0.00,2,2,0,2,50000,50000,0,50000,0,0,0,0,0.00,0.00,0.00,0.00
2014-06-27 18:40:00,2,50000,0,0.00,2,2,0,2,50000,50000,0,50000,0,0,0,0,0.00,0.00,0.00,0.00
2014-06-27 18:50:00,2,49966,0,0.00,2,2,0,2,49663,50000,101,50000,0,0,0,0,0.00,0.00,0.00,0.00
2014-06-27 19:00:00,2,49903,0,0.00,2,2,0,2,49028,50000,292,50000,0,0,0,0,0.00,0.00,0.00,0.00
2014-06-27 19:10:00,2,50000,0,0.00,2,2,0,2,50000,50000,0,50000,0,0,0,0,0.00,0.00,0.00,0.00
2014-06-27 19:20:00,2,49964,0,0.00,2,2,0,2,49640,50000,108,50000,0,0,0,0,0.00,0.00,0.00,0.00
2014-06-27 19:30:00,2,50000,0,0.00,2,2,0,2,50000,50000,0,50000,0,0,0,0,0.00,0.00,0.00,0.00
2014-06-27 19:40:00,2,49932,0,0.00,2,2,0,2,49534,50000,148,50000,0,0,0,0,0.00,0.00,0.00,0.00
2014-06-27 19:50:00,2,49892,0,0.00,2,2,0,2,48922,50000,323,50000,0,0,0,0,0.00,0.00,0.00,0.00
2014-06-27 20:00:00,2,49953,0,0.00,2,2,0,2,49534,50000,140,50000,0,0,0,0,0.00,0.00,0.00,0.00
2014-06-27 20:10:00,2,50000,0,0.00,2,2,0,2,50000,50000,0,50000,0,0,0,0,0.00,0.00,0.00,0.00
2014-06-27 20:20:00,2,49929,0,0.00,2,2,0,2,49291,50000,213,50000,0,0,0,0,0.00,0.00,0.00,0.00
2014-06-27 20:30:00,2,49986,0,0.00,2,2,0,2,49858,50000,43,50000,0,0,0,0,0.00,0.00,0.00,0.00
2014-06-27 20:40:00,2,50000,0,0.00,2,2,0,2,50000,50000,0,50000,0,0,0,0,0.00,0.00,0.00,0.00
2014-06-27 20:50:00,2,50000,0,0.00,2,2,0,2,50000,50000,0,50000,0,0,0,0,0.00,0.00,0.00,0.00
2014-06-27 21:00:00,2,49940,0,0.00,2,2,0,2,49398,50000,181,50000,0,0,0,0,0.00,0.00,0.00,0.00
2014-06-27 21:10:00,2,49209,0,0.00,2,2,0,2,45540,50000,1598,50000,0,0,0,0,0.00,0.00,0.00,0.00
2014-06-27 21:20:00,2,42133,0,0.00,2,2,0,2,31810,50000,6119,41672,0,0,0,0,0.00,0.00,0.00,0.00
2014-06-27 21:30:00,2,26599,0,0.00,2,2,0,2,17490,38448,6819,26007,0,0,0,0,0.00,0.00,0.00,0.00
2014-06-27 21:40:00,2,26650,0,0.00,2,2,0,2,20863,33389,3672,25964,0,0,0,0,0.00,0.00,0.00,0.00
2014-06-27 21:50:00,2,21026,0,0.00,2,2,0,2,16012,27129,3175,21424,0,0,0,0,0.00,0.00,0.00,0.00
2014-06-27 22:00:00,2,35186,0,0.00,2,2,0,2,16568,49261,12685,41887,0,0,0,0,0.00,0.00,0.00,0.00
2014-06-27 22:10:00,2,7952,2,0.00,2,2,0,2,5779,12871,2039,7300,0,10,4,0,0.00,0.00,0.00,0.00
2014-06-27 22:20:00,2,4587,41,0.36,2,2,0,2,2996,6075,824,4462,10,51,16,51,0.00,0.80,0.28,0.33
2014-06-27 22:30:00,2,5081,51,0.25,2,2,0,2,4360,5469,333,5114,51,51,0,51,0.10,0.40,0.08,0.25
2014-06-27 22:40:00,2,5930,51,0.14,2,2,0,2,4825,7392,859,5794,51,51,0,51,0.00,0.20,0.06,0.15
2014-06-27 22:50:00,2,8319,10,0.00,2,2,0,2,5608,10073,1261,8572,10,10,0,10,0.00,0.00,0.00,0.00
2014-06-27 23:00:00,2,9707,10,0.00,2,2,0,2,7209,11425,1226,9584,10,10,0,10,0.00,0.00,0.00,0.00
2014-06-27 23:10:00,2,7197,10,0.00,2,2,0,2,6413,7882,571,7208,10,10,0,10,0.00,0.00,0.00,0.00
2014-06-27 23:20:00,2,7829,10,0.00,2,2,0,2,6929,9443,710,7564,10,10,0,10,0.00,0.00,0.00,0.00
2014-06-27 23:30:00,2,10892,10,0.00,2,2,0,2,8193,13719,1587,10606,10,10,0,10,0.00,0.00,0.00,0.00
2014-06-27 23:40:00,2,10450,4,0.00,2,2,0,2,7929,12268,1509,10810,0,10,5,0,0.00,0.00,0.00,0.00
2014-06-27 23:50:00,2,9884,0,0.00,2,2,0,2,8057,11314,941,9917,0,0,0,0,0.00,0.00,0.00,0.00
